Location: Unspecified
(52.0000°N, 4.4000°E)
Time: 10:39:09
(UTC+00:00)

Daily predictions for brighter satellites

Satellite Brightness Start Highest point End
(mag) Time Altitude Azimuth Time Altitude Azimuth Time Altitude Azimuth
Cosmos 1634 Rocket 4.1 16:04:06 10° S 16:10:07 56° E 16:16:08 10° NNE
Lacrosse 5 rocket 1.1 16:08:39 10° SW 16:12:25 81° SSE 16:16:07 10° ENE
Iridium 45 4.3 16:13:43 10° S 16:16:53 86° W 16:20:08 10° N
CENTAUR R/B 2.6 16:11:35 10° SW 16:17:21 88° NW 16:24:44 10° NE
SJ 16-02 3.8 16:18:39 10° WNW 16:20:09 12° NW 16:21:38 10° NNW
Cosmos 1455 Rocket 3.3 16:17:56 10° SSW 16:22:15 74° WNW 16:26:39 10° N
Cosmos 1602 Rocket 4.2 16:18:13 10° N 16:22:16 34° ENE 16:26:15 10° SE
Cosmos 2279 Rocket 4.2 16:18:46 10° SSE 16:24:44 51° E 16:30:45 10° NNE
Cosmos 1570 Rocket 4.1 16:20:16 10° NNW 16:25:39 89° WSW 16:30:59 10° SSE
Cosmos 1092 Rocket 4.2 16:20:10 10° NNW 16:26:21 77° W 16:32:27 10° S
SMAP 3.2 16:26:49 10° SE 16:31:20 52° ENE 16:35:53 10° N
Cosmos 1656 4.0 16:26:46 10° S 16:32:08 48° ESE 16:37:35 10° NE
UNK 4.3 16:27:59 10° NNE 16:32:15 36° E 16:36:28 10° SSE
Cosmos 1867 3.7 16:29:39 10° NW 16:35:03 55° NE 16:40:23 10° ESE
YAOGAN 1 4.0 16:32:49 10° E 16:35:28 16° ENE 16:38:07 10° NNE
NOSS 2-2 (C) 2.6 16:32:21 10° SW 16:35:32 84° SE 16:38:06 13° NE
Cosmos 2228 2.9 16:31:38 10° S 16:35:52 83° ESE 16:40:09 10° NNE
Landsat 7 4.0 16:32:24 10° SE 16:36:50 46° ENE 16:41:18 10° N
SAR-Lupe-4 4.1 16:33:49 10° SE 16:37:06 36° ENE 16:40:25 10° N
Cosmos 2297 Rocket 2.2 16:33:25 10° NNW 16:39:08 77° ENE 16:44:48 10° SE
USA 290 2.2 16:36:04 10° NNW 16:39:19 58° ENE 16:42:31 10° SE
USA 215 3.5 16:35:28 11° ENE 16:41:44 59° N 16:48:09 10° W
Cosmos 773 Rocket 4.0 16:37:15 10° NNW 16:42:29 88° WSW 16:47:43 10° SSE
SAR-Lupe-1 4.5 16:42:45 10° SE 16:46:09 40° ENE 16:49:34 10° N
ATLAS CENTAUR R/B 1.5 16:42:59 10° NW 16:46:11 54° SW 16:49:17 10° SSE
Cosmos 1782 2.6 16:42:46 10° S 16:46:18 57° E 16:49:51 10° NNE
CZ-4C R/B 2.9 16:40:18 10° NW 16:46:56 78° NE 16:55:21 10° SE
Cosmos 1607 4.0 16:42:03 10° NW 16:48:19 89° NE 16:54:37 10° SE
Cosmos 1733 1.4 16:47:34 10° NNW 16:49:12 63° W 16:50:48 10° S
CZ-2D R/B 2.9 16:49:36 10° SE 16:52:37 47° ENE 16:55:41 10° N
Meteor 1-25 Rocket 4.4 16:49:11 10° N 16:54:53 53° ENE 17:00:32 10° SSE
Lacrosse 4 Rocket 2.5 16:51:40 10° WSW 16:55:27 36° NW 16:59:05 11° NNE
Cosmos 2219 4.1 16:50:41 10° NNW 16:55:39 29° NE 16:59:37 14° E
IRS-P3 4.2 16:50:34 10° SE 16:55:42 52° ENE 17:00:52 10° N
Cosmos 1825 Rocket 4.0 16:51:59 10° N 16:56:04 37° ENE 17:00:05 10° SE
ARIANE 5 R/B 2.4 16:52:22 10° SSE 16:57:24 71° ENE 17:02:33 10° NNW
Cosmos 1758 Rocket 3.7 16:54:04 10° NNW 16:58:24 75° W 17:02:40 10° S
Cosmos 2266 Rocket 3.9 16:52:18 10° N 16:58:28 65° ENE 17:04:30 10° SSE
Cosmos 1315 Rocket 3.9 16:55:48 10° SW 16:59:27 43° WNW 17:03:09 10° N
Cosmos 2208 Rocket 4.5 16:57:01 10° NNW 17:02:08 63° WSW 17:07:14 10° S
Meteor 1-5 Rocket 4.5 16:57:21 10° N 17:02:22 40° ENE 17:07:26 10° SE
Cosmos 2098 Rocket 3.0 16:58:37 10° S 17:02:43 75° E 17:07:37 10° NNE
Cosmos 2151 2.8 16:59:36 10° N 17:03:46 78° ENE 17:07:56 10° SSE
Cosmos 1743 2.3 17:01:13 10° NNW 17:04:29 80° WSW 17:07:42 10° S
SPOT 1/Viking Rocket 3.8 17:02:29 10° SE 17:07:24 45° ENE 17:12:22 10° N
Cosmos 1980 Rocket 3.6 17:04:05 10° SE 17:07:38 17° E 17:08:00 17° E
Cosmos 1844 Rocket 4.1 17:06:04 10° NNW 17:09:52 18° NNE 17:10:59 17° NE
SL-16 R/B 2.9 17:08:58 10° NNE 17:15:09 65° WNW 17:21:16 10° SSW
Cosmos 2263 Rocket 2.4 17:11:58 10° NNW 17:17:26 47° NE 17:22:55 10° SE
NOSS 3-2 (C) 3.3 17:14:39 10° SSW 17:19:35 53° SE 17:23:02 24° ENE
NOSS 3-2 (A) 3.3 17:14:25 10° SW 17:19:35 79° NW 17:24:05 20° NE
GEOS 3 Rocket 3.7 17:19:36 20° NE 17:23:28 89° SE 17:28:52 10° SW
CZ-4 R/B 4.3 17:20:20 10° SSE 17:24:12 56° ENE 17:28:05 10° N
MOS 1 Rocket 3.4 17:19:44 10° SSE 17:24:38 86° ENE 17:29:52 10° NNW
BREEZE M DEB (TANK) 3.5 17:23:37 10° SSW 17:25:19 20° SSE 17:25:19 20° SSE
Cosmos 1076 Rocket 3.7 17:21:18 10° N 17:25:29 46° ENE 17:29:38 10° SSE
AQUARIUS 4.1 17:23:13 10° SSE 17:27:38 83° WSW 17:32:05 10° NNW
Cosmos 1933 3.2 17:25:05 10° S 17:28:51 59° E 17:30:45 27° NNE
Cosmos 2084 Rocket 4.0 17:26:05 10° NW 17:30:13 57° SW 17:34:20 10° SSE
Cosmos 2227 Rocket 2.1 17:24:38 10° NNW 17:30:20 84° ENE 17:35:59 10° SSE
SJ-12 4.2 17:26:48 10° S 17:30:32 63° WSW 17:34:19 10° NNW
Cosmos 1538 Rocket 4.1 17:26:09 10° NNW 17:31:17 50° ENE 17:36:27 10° SE
Cosmos 1606 Rocket 3.5 17:28:00 10° S 17:32:20 61° E 17:35:24 19° NNE
Cosmos 2360 4.2 17:27:25 10° SSW 17:33:10 87° WNW 17:37:25 19° NNE
Cosmos 2369 Rocket 4.2 17:32:13 10° WNW 17:36:12 19° NNW 17:40:13 10° NNE
PSLV R/B 3.6 17:36:04 33° ESE 17:37:19 44° ENE 17:41:12 10° N
Cosmos 1943 Rocket 4.4 17:36:45 10° N 17:37:36 10° N 17:38:28 10° N
CZ-2D R/B 3.4 17:33:56 10° SSE 17:38:04 62° ENE 17:42:12 10° N
COSMO-SKYMED 1 3.5 17:39:14 27° SE 17:39:14 27° SE 17:41:47 10° SSE
NOSS 2-2 (D) 3.3 17:36:24 10° WSW 17:39:28 47° NW 17:40:03 40° N
SL-19 R/B 4.2 17:36:34 10° SE 17:41:51 58° ENE 17:47:25 10° N
Resurs 1-3 3.5 17:37:54 10° SSE 17:42:06 55° ENE 17:46:20 10° N
Cosmos 1503 Rocket 3.9 17:37:34 10° SSW 17:42:49 87° ESE 17:46:10 23° NNE
BREEZE-M DEB (TANK) 3.9 17:39:40 10° W 17:43:00 67° S 17:48:32 22° ESE
Cosmos 2278 Rocket 4.4 17:46:11 10° NNW 17:47:38 11° N 17:49:06 10° NNE
Meteor 2-20 4.5 17:42:05 10° S 17:48:04 56° E 17:54:05 10° NNE
Cosmos 1697 Rocket 2.6 17:42:44 10° SSW 17:48:16 65° ESE 17:50:45 33° NE
Okean 1-7 Rocket 4.3 17:44:26 10° NNW 17:48:44 54° W 17:52:59 10° S
Lacrosse 5 rocket 1.7 17:46:09 10° W 17:49:41 40° N 17:49:58 39° N
Cosmos 1354 Rocket 3.9 17:45:50 10° SSW 17:51:04 75° ESE 17:53:34 32° NNE
BREEZE-M DEB (TANK) 3.8 17:48:41 10° W 17:52:10 86° N 17:57:01 29° E
Cosmos 1461 2.5 17:49:57 10° SW 17:53:51 85° SE 17:54:18 69° NE
NOSS 2-2 (E) 3.5 17:51:18 10° WSW 17:54:21 43° NW 17:54:24 43° NW
Spot 4 Rocket 3.9 17:50:47 10° SSE 17:55:53 81° ENE 18:01:02 10° NNW
IRAS Rocket 4.1 17:51:38 10° SSE 17:57:06 73° ENE 18:02:34 10° NNW
Cosmos 1726 Rocket 3.5 17:52:59 10° S 17:57:38 81° E 17:59:49 31° NNE
Cosmos 1655 Rocket 4.0 17:53:31 10° N 17:59:49 87° WSW 18:06:02 10° S
SKYMED 2 3.4 17:59:36 49° NNE 18:00:43 77° ESE 18:05:03 10° S
Cosmos 1777 Rocket 4.4 17:56:48 10° SW 18:02:00 61° WNW 18:05:19 22° NNE
Gbstr 26 Del rocket 3.7 17:59:30 10° SW 18:02:38 34° S 18:02:38 34° S
Meteor 2-10 3.9 18:01:44 10° N 18:07:05 79° ENE 18:12:35 10° SSE
CENTAUR R/B 3.6 18:02:53 10° W 18:08:52 40° NNW 18:12:28 26° NNE
Meteor 2-20 Rocket 4.4 18:04:06 10° S 18:10:12 59° E 18:12:30 37° NNE
YAOGAN 1 2.6 18:06:32 10° S 18:10:47 78° WSW 18:15:05 10° NNW
Cosmos 923 Rocket 4.4 18:08:28 10° NNW 18:12:38 45° NNE 18:12:38 45° NNE
Cosmos 2082 3.6 18:10:38 10° NNW 18:16:20 66° NE 18:17:04 60° E
USA 281 4.1 18:17:16 30° NNE 18:17:16 30° NNE 18:22:06 10° NNW
Meteor 1-26 Rocket 4.4 18:13:52 10° S 18:18:03 48° SE 18:18:03 48° SE
USA 238 DEB 3.7 18:13:53 10° SSW 18:19:45 50° ESE 18:19:57 49° ESE
USA 238 3.7 18:14:00 10° SSW 18:19:52 49° ESE 18:20:02 49° ESE
Resurs 01 Rocket 3.9 18:25:00 14° N 18:25:00 14° N 18:25:43 10° N
Cosmos 1953 Rocket 4.2 18:18:43 10° NNW 18:23:04 56° W 18:27:24 10° S
USA 215 3.2 18:22:49 52° ENE 18:24:25 69° NNE 18:30:56 10° WNW
Aureole 1 Rocket 4.2 18:24:40 10° S 18:27:16 37° S 18:27:16 37° S
Lacrosse 4 Rocket 3.9 18:32:52 10° NW 18:34:23 12° NNW 18:34:34 12° NNW
CZ-4C R/B 4.3 18:28:42 10° NW 18:35:09 37° WSW 18:42:50 10° S
USA 81 4.4 18:31:25 10° NNW 18:36:38 62° W 18:41:48 10° S
Cosmos 990 Rocket 4.4 18:33:42 10° SW 18:38:45 58° WNW 18:39:47 48° NNW
Cosmos 2219 3.3 18:34:37 10° NNW 18:40:22 76° WSW 18:41:35 56° S
NOAA 6 4.3 18:36:09 10° S 18:41:12 63° WSW 18:46:17 10° NNW
Cosmos 1980 Rocket 2.4 18:45:08 10° SSW 18:49:48 62° SSW 18:49:48 62° SSW
Cosmos 1844 Rocket 3.9 18:49:29 10° NNW 18:52:38 32° N 18:52:38 32° N
Cosmos 2263 Rocket 3.4 18:56:05 10° NW 19:01:19 39° WSW 19:04:59 18° SSW
Cosmos 1553 Rocket 4.1 19:01:07 10° SSW 19:06:49 72° WSW 19:06:49 72° WSW
NOSS 3-2 (C) 4.0 19:05:20 10° WSW 19:10:27 46° NNW 19:10:27 46° NNW
Cosmos 1697 Rocket 4.2 19:27:41 10° WSW 19:32:29 31° NW 19:32:29 31° NW
CENTAUR R/B 4.1 19:54:50 10° WNW 19:59:34 33° NNW 19:59:34 33° NNW
USA 215 4.4 20:10:10 37° WNW 20:10:10 37° WNW 20:14:03 10° WNW
